Location: Chrząstowo
(52.0654°N, 17.1290°E)
Time: 04:27:42
(UTC+01:00)

Envisat - Pass Details

Date: 19 December 2019
Orbit: 764 x 766 km, 98.1° (Epoch: 20 January)

Event Time Altitude Azimuth Distance (km) Brightness Sun altitude
Rises 05:04:11 0° 30° (NNE) 3,245 6.5 -24.9°
Reaches altitude 10° 05:08:08 10° 61° (ENE) 2,311 6.2 -24.3°
Maximum altitude 05:10:05 12° 83° (E) 2,164 6.3 -24.0°
Drops below altitude 10° 05:12:02 10° 106° (ESE) 2,304 6.5 -23.7°
Sets 05:15:56 0° 137° (SE) 3,223 7.0 -23.1°
